Location: Grand Moustoir
(47.8355°N, 3.3120°W)
Time: 00:52:18
(UTC+00:00)

EXPRESS MD2 - Pass Details

Date: 20 January 2020
Orbit: 262 x 4041 km, 49.9° (Epoch: 28 February)

Event Time Altitude Azimuth Distance (km) Brightness Sun altitude
Exits shadow 06:45:02 19° 277° (W) 946 3.9 -11.5°
Maximum altitude 06:46:47 55° 351° (N) 385 2.4 -11.2°
Drops below altitude 10° 06:48:57 10° 72° (ENE) 1,089 5.7 -10.8°
Sets 06:50:37 0° 78° (ENE) 1,868 7.2 -10.6°
